Starlink 3641

operational
NORAD ID: 51788 Int'l Des: 2022-017 Owner: SPXS Country: US Constellation: starlink
LEOCIRCULAR

Über Starlink 3641

Beschreibung wird geladen...

Live-Position

3D-Globus wird geladen...

Nächste Überflüge

Höhenverlauf

Altitude vs Time

uPlot chart will show altitude changes over time

Zweizeiliger Elementsatz

1 51788U 22017W 25304.74251119 -.00000573 00000-0 -17938-4 0 9994
2 51788 53.2169 207.9869 0001494 96.8091 263.3072 15.08835870204452
Epoch: 31. Okt. 2025 • Age: 21 hours

Aktueller Status

Höhe 542.2 km
Geschwindigkeit 7.60 km/s
Subsatellitenpunkt 37.45°N, 22.91°W
Startdatum 25. Feb. 2022
Alter 3.6 years
Typ internet

Technische Details

Klassifizierung Payload
Masse 297.00 kg
Trockenmasse 275.00 kg
Gesamtmasse 297.00 kg
Länge 0.20 m
Durchmesser 2.80 m
Spannweite 9.00 m
Form Box + pan
Hersteller SPXS
Bus-Typ Starlink
Phasenstatus In Orbit
Besitzer/Staat SPXS/US

Große Konstellationen

Loading constellations...